Time,TemperatureF,DewpointF,PressureIn,WindDirection,WindDirectionDegrees,WindSpeedMPH,WindSpeedGustMPH,Humidity,HourlyPrecipIn,Conditions,Clouds,dailyrainin,SoftwareType,DateUTC
2013-09-05 00:00:00,65.3,64.7,30.15,SSE,158,0.0,0.0,98,0.00,CLR,,0.00,WeatherDisplay:10.37,2013-09-05 04:00:00,
2013-09-05 00:01:00,65.3,64.7,30.15,SSE,158,0.0,0.0,98,0.00,CLR,,0.00,WeatherDisplay:10.37,2013-09-05 04:01:00,
2013-09-05 00:06:00,65.1,64.5,30.15,SSE,158,0.0,0.0,98,0.00,CLR,,0.00,WeatherDisplay:10.37,2013-09-05 04:06:00,
2013-09-05 00:11:00,64.9,64.4,30.15,SSE,158,0.0,0.0,98,0.00,CLR,,0.00,WeatherDisplay:10.37,2013-09-05 04:11:00,
2013-09-05 00:16:00,64.9,64.4,30.15,SSE,158,0.0,0.0,98,0.00,CLR,,0.00,WeatherDisplay:10.37,2013-09-05 04:16:00,
2013-09-05 00:21:00,64.9,64.4,30.15,SSE,158,0.0,0.0,98,0.00,CLR,,0.00,WeatherDisplay:10.37,2013-09-05 04:21:00,
2013-09-05 00:26:00,64.9,64.4,30.15,SSE,158,0.0,0.0,98,0.00,CLR,,0.00,WeatherDisplay:10.37,2013-09-05 04:26:00,
2013-09-05 00:31:00,64.9,64.4,30.15,SSE,158,0.0,0.0,98,0.00,CLR,,0.00,WeatherDisplay:10.37,2013-09-05 04:31:00,
2013-09-05 00:36:00,64.9,64.4,30.15,SSE,158,0.0,0.0,98,0.00,CLR,,0.00,WeatherDisplay:10.37,2013-09-05 04:36:00,
2013-09-05 00:41:00,64.8,64.2,30.12,SSE,158,0.0,0.0,98,0.00,CLR,,0.00,WeatherDisplay:10.37,2013-09-05 04:41:00,
2013-09-05 00:46:00,64.6,64.0,30.12,SSE,158,0.0,0.0,98,0.00,CLR,,0.00,WeatherDisplay:10.37,2013-09-05 04:46:00,
2013-09-05 00:51:00,64.6,64.0,30.12,SSE,158,0.0,0.0,98,0.00,CLR,,0.00,WeatherDisplay:10.37,2013-09-05 04:51:00,
2013-09-05 00:56:00,64.6,64.0,30.15,SSE,158,0.0,0.0,98,0.00,CLR,,0.00,WeatherDisplay:10.37,2013-09-05 04:56:00,
2013-09-05 01:01:00,64.4,63.8,30.15,SSE,158,0.0,0.0,98,0.00,CLR,,0.00,WeatherDisplay:10.37,2013-09-05 05:01:00,
2013-09-05 01:06:00,64.4,63.8,30.15,SSE,158,0.0,0.0,98,0.00,CLR,,0.00,WeatherDisplay:10.37,2013-09-05 05:06:00,
2013-09-05 01:11:00,64.2,63.6,30.12,SSE,158,0.0,0.0,98,0.00,CLR,,0.00,WeatherDisplay:10.37,2013-09-05 05:11:00,
2013-09-05 01:16:00,64.4,63.8,30.12,SSE,158,0.0,0.0,98,0.00,CLR,,0.00,WeatherDisplay:10.37,2013-09-05 05:16:00,
2013-09-05 01:21:00,64.4,63.8,30.12,SSE,158,0.0,0.0,98,0.00,CLR,,0.00,WeatherDisplay:10.37,2013-09-05 05:21:00,
2013-09-05 01:26:00,64.4,63.8,30.15,SSE,158,0.0,0.0,98,0.00,CLR,,0.00,WeatherDisplay:10.37,2013-09-05 05:26:00,
2013-09-05 01:31:00,64.2,63.6,30.15,SSE,158,0.0,0.0,98,0.00,CLR,,0.00,WeatherDisplay:10.37,2013-09-05 05:31:00,
2013-09-05 01:36:00,64.2,63.6,30.15,SSE,158,0.0,0.0,98,0.00,CLR,,0.00,WeatherDisplay:10.37,2013-09-05 05:36:00,
2013-09-05 01:41:00,64.2,63.6,30.15,SSE,158,0.0,0.0,98,0.00,CLR,,0.00,WeatherDisplay:10.37,2013-09-05 05:41:00,
2013-09-05 01:46:00,64.2,63.6,30.15,SSE,158,0.0,0.0,98,0.00,CLR,,0.00,WeatherDisplay:10.37,2013-09-05 05:46:00,
2013-09-05 01:51:00,64.2,63.6,30.15,SSE,158,0.0,0.0,98,0.00,CLR,,0.00,WeatherDisplay:10.37,2013-09-05 05:51:00,
2013-09-05 01:56:00,64.0,63.5,30.15,SSE,158,0.0,0.0,98,0.00,CLR,,0.00,WeatherDisplay:10.37,2013-09-05 05:56:00,
2013-09-05 02:01:00,64.0,63.5,30.15,SSE,158,0.0,0.0,98,0.00,CLR,,0.00,WeatherDisplay:10.37,2013-09-05 06:01:00,
2013-09-05 02:06:00,63.9,63.3,30.15,SSE,158,0.0,0.0,98,0.00,CLR,,0.00,WeatherDisplay:10.37,2013-09-05 06:06:00,
2013-09-05 02:11:00,63.9,63.3,30.15,SSE,158,0.0,0.0,98,0.00,CLR,,0.00,WeatherDisplay:10.37,2013-09-05 06:11:00,
2013-09-05 02:16:00,63.9,63.3,30.15,SSE,158,0.0,0.0,98,0.00,CLR,,0.00,WeatherDisplay:10.37,2013-09-05 06:16:00,
2013-09-05 02:21:00,63.9,63.3,30.15,SSE,158,0.0,0.0,98,0.00,CLR,,0.00,WeatherDisplay:10.37,2013-09-05 06:21:00,
2013-09-05 02:26:00,63.9,63.3,30.15,SSE,158,0.0,0.0,98,0.00,CLR,,0.00,WeatherDisplay:10.37,2013-09-05 06:26:00,
2013-09-05 02:32:00,63.7,63.1,30.15,SSE,158,0.0,0.0,98,0.00,CLR,,0.00,WeatherDisplay:10.37,2013-09-05 06:32:00,
2013-09-05 02:37:00,63.5,62.9,30.15,SSE,158,0.0,0.0,98,0.00,CLR,,0.00,WeatherDisplay:10.37,2013-09-05 06:37:00,
2013-09-05 02:42:00,63.5,62.9,30.15,SSE,158,0.0,0.0,98,0.00,CLR,,0.00,WeatherDisplay:10.37,2013-09-05 06:42:00,
2013-09-05 02:47:00,63.5,62.9,30.15,SSE,158,0.0,0.0,98,0.00,CLR,,0.00,WeatherDisplay:10.37,2013-09-05 06:47:00,
2013-09-05 02:52:00,63.5,62.9,30.15,SSE,158,0.0,0.0,98,0.00,CLR,,0.00,WeatherDisplay:10.37,2013-09-05 06:52:00,
2013-09-05 02:57:00,63.3,62.7,30.15,SSE,158,0.0,0.0,98,0.00,CLR,,0.00,WeatherDisplay:10.37,2013-09-05 06:57:00,
2013-09-05 03:02:00,63.3,62.7,30.15,SSE,158,0.0,0.0,98,0.00,CLR,,0.00,WeatherDisplay:10.37,2013-09-05 07:02:00,
2013-09-05 03:07:00,63.3,62.7,30.15,West,270,0.0,0.0,98,0.00,CLR,,0.00,WeatherDisplay:10.37,2013-09-05 07:07:00,
2013-09-05 03:12:00,63.5,62.9,30.15,West,270,0.0,0.0,98,0.00,CLR,,0.00,WeatherDisplay:10.37,2013-09-05 07:12:00,
2013-09-05 03:17:00,63.5,62.9,30.15,West,270,0.0,0.0,98,0.00,CLR,,0.00,WeatherDisplay:10.37,2013-09-05 07:17:00,
2013-09-05 03:22:00,63.5,62.9,30.15,West,270,0.0,0.0,98,0.00,CLR,,0.00,WeatherDisplay:10.37,2013-09-05 07:22:00,
2013-09-05 03:27:00,63.5,62.9,30.15,West,270,0.0,0.0,98,0.00,CLR,,0.00,WeatherDisplay:10.37,2013-09-05 07:27:00,
2013-09-05 03:32:00,63.5,62.9,30.15,West,270,0.0,0.0,98,0.00,CLR,,0.00,WeatherDisplay:10.37,2013-09-05 07:32:00,
2013-09-05 03:37:00,63.5,62.9,30.15,West,270,0.0,0.0,98,0.00,CLR,,0.00,WeatherDisplay:10.37,2013-09-05 07:37:00,
2013-09-05 03:42:00,63.5,62.9,30.15,West,270,0.0,0.0,98,0.00,CLR,,0.00,WeatherDisplay:10.37,2013-09-05 07:42:00,
2013-09-05 03:47:00,63.5,62.9,30.15,West,270,0.0,0.0,98,0.00,CLR,,0.00,WeatherDisplay:10.37,2013-09-05 07:47:00,
2013-09-05 03:52:00,63.5,62.9,30.15,West,270,0.0,0.0,98,0.00,CLR,,0.00,WeatherDisplay:10.37,2013-09-05 07:52:00,
2013-09-05 03:57:00,63.5,62.9,30.12,West,270,0.0,0.0,98,0.00,CLR,,0.00,WeatherDisplay:10.37,2013-09-05 07:57:00,
2013-09-05 04:02:00,63.3,62.7,30.12,West,270,0.0,0.0,98,0.00,CLR,,0.00,WeatherDisplay:10.37,2013-09-05 08:02:00,
2013-09-05 04:07:00,63.3,62.7,30.12,West,270,0.0,0.0,98,0.00,CLR,,0.00,WeatherDisplay:10.37,2013-09-05 08:07:00,
2013-09-05 04:12:00,63.1,62.6,30.15,West,270,0.0,0.0,98,0.00,CLR,,0.00,WeatherDisplay:10.37,2013-09-05 08:12:00,
2013-09-05 04:17:00,63.0,62.4,30.15,West,270,0.0,0.0,98,0.00,CLR,,0.00,WeatherDisplay:10.37,2013-09-05 08:17:00,
2013-09-05 04:22:00,62.8,62.2,30.15,West,270,0.0,0.0,98,0.00,CLR,,0.00,WeatherDisplay:10.37,2013-09-05 08:22:00,
2013-09-05 04:27:00,62.8,62.2,30.12,WSW,248,0.0,0.0,98,0.00,CLR,,0.00,WeatherDisplay:10.37,2013-09-05 08:27:00,
2013-09-05 04:32:00,63.0,62.4,30.12,WSW,248,0.0,0.0,98,0.00,CLR,,0.00,WeatherDisplay:10.37,2013-09-05 08:32:00,
2013-09-05 04:37:00,63.0,62.4,30.12,WSW,248,0.0,0.0,98,0.00,CLR,,0.00,WeatherDisplay:10.37,2013-09-05 08:37:00,
2013-09-05 04:42:00,62.8,62.2,30.12,WSW,248,0.0,0.0,98,0.00,CLR,,0.00,WeatherDisplay:10.37,2013-09-05 08:42:00,
2013-09-05 04:47:00,62.6,62.0,30.12,WSW,248,0.0,0.0,98,0.00,CLR,,0.00,WeatherDisplay:10.37,2013-09-05 08:47:00,
2013-09-05 04:52:00,62.8,62.2,30.12,WSW,248,0.0,0.0,98,0.00,CLR,,0.00,WeatherDisplay:10.37,2013-09-05 08:52:00,
2013-09-05 04:57:00,62.6,62.0,30.15,WSW,248,0.0,0.0,98,0.00,CLR,,0.00,WeatherDisplay:10.37,2013-09-05 08:57:00,
2013-09-05 05:02:00,62.6,62.0,30.15,WSW,248,0.0,0.0,98,0.00,CLR,,0.00,WeatherDisplay:10.37,2013-09-05 09:02:00,
2013-09-05 05:07:00,62.6,62.0,30.15,WSW,248,0.0,0.0,98,0.00,CLR,,0.00,WeatherDisplay:10.37,2013-09-05 09:07:00,
2013-09-05 05:12:00,62.4,61.8,30.15,WSW,248,0.0,0.0,98,0.00,CLR,,0.00,WeatherDisplay:10.37,2013-09-05 09:12:00,
2013-09-05 05:17:00,62.4,61.8,30.15,WSW,248,0.0,0.0,98,0.00,CLR,,0.00,WeatherDisplay:10.37,2013-09-05 09:17:00,
2013-09-05 05:22:00,62.4,61.8,30.15,WSW,248,0.0,0.0,98,0.00,CLR,,0.00,WeatherDisplay:10.37,2013-09-05 09:22:00,
2013-09-05 05:27:00,62.2,61.7,30.12,WSW,248,0.0,0.0,98,0.00,CLR,,0.00,WeatherDisplay:10.37,2013-09-05 09:27:00,
2013-09-05 05:32:00,62.2,61.7,30.12,WSW,248,0.0,0.0,98,0.00,CLR,,0.00,WeatherDisplay:10.37,2013-09-05 09:32:00,
2013-09-05 05:37:00,62.2,61.7,30.12,WSW,248,0.0,0.0,98,0.00,CLR,,0.00,WeatherDisplay:10.37,2013-09-05 09:37:00,
2013-09-05 05:42:00,62.2,61.7,30.15,WSW,248,0.0,0.0,98,0.00,CLR,,0.00,WeatherDisplay:10.37,2013-09-05 09:42:00,
2013-09-05 05:47:00,62.1,61.5,30.15,WSW,248,0.0,0.0,98,0.00,CLR,,0.00,WeatherDisplay:10.37,2013-09-05 09:47:00,
2013-09-05 05:52:00,61.9,61.3,30.15,WSW,248,0.0,0.0,98,0.00,CLR,,0.00,WeatherDisplay:10.37,2013-09-05 09:52:00,
2013-09-05 05:57:00,61.7,61.1,30.15,WSW,248,0.0,0.0,98,0.00,CLR,,0.00,WeatherDisplay:10.37,2013-09-05 09:57:00,
2013-09-05 06:02:00,61.7,61.1,30.15,WSW,248,0.0,0.0,98,0.00,CLR,,0.00,WeatherDisplay:10.37,2013-09-05 10:02:00,
2013-09-05 06:07:00,61.5,61.0,30.15,WSW,248,0.0,0.0,98,0.00,CLR,,0.00,WeatherDisplay:10.37,2013-09-05 10:07:00,
2013-09-05 06:12:00,61.5,61.0,30.12,WSW,248,0.0,0.0,98,0.00,CLR,,0.00,WeatherDisplay:10.37,2013-09-05 10:12:00,
2013-09-05 06:17:00,61.5,61.0,30.12,WSW,248,0.9,1.2,98,0.00,CLR,,0.00,WeatherDisplay:10.37,2013-09-05 10:17:00,
2013-09-05 06:22:00,61.5,61.0,30.12,WSW,248,0.0,0.0,98,0.00,CLR,,0.00,WeatherDisplay:10.37,2013-09-05 10:22:00,
2013-09-05 06:27:00,61.5,61.0,30.15,WSW,248,0.0,0.0,98,0.00,CLR,,0.00,WeatherDisplay:10.37,2013-09-05 10:27:00,
2013-09-05 06:32:00,61.3,60.8,30.15,WSW,248,0.0,0.0,98,0.00,CLR,,0.00,WeatherDisplay:10.37,2013-09-05 10:32:00,
2013-09-05 06:37:00,61.3,60.8,30.15,WSW,248,0.0,0.0,98,0.00,CLR,,0.00,WeatherDisplay:10.37,2013-09-05 10:37:00,
2013-09-05 06:42:00,61.2,60.6,30.15,WSW,248,0.0,0.0,98,0.00,CLR,,0.00,WeatherDisplay:10.37,2013-09-05 10:42:00,
2013-09-05 06:47:00,61.2,60.6,30.15,WSW,248,0.0,0.0,98,0.00,CLR,,0.00,WeatherDisplay:10.37,2013-09-05 10:47:00,
2013-09-05 06:52:00,61.0,60.4,30.15,WSW,248,0.0,0.0,98,0.00,CLR,,0.00,WeatherDisplay:10.37,2013-09-05 10:52:00,
2013-09-05 06:57:00,61.2,60.6,30.15,WSW,248,0.0,1.2,98,0.00,CLR,,0.00,WeatherDisplay:10.37,2013-09-05 10:57:00,
2013-09-05 07:02:00,61.0,60.4,30.15,WSW,248,0.0,0.0,98,0.00,CLR,,0.00,WeatherDisplay:10.37,2013-09-05 11:02:00,
2013-09-05 07:07:00,61.0,60.4,30.15,SSE,158,0.0,0.0,98,0.00,CLR,,0.00,WeatherDisplay:10.37,2013-09-05 11:07:00,
2013-09-05 07:12:00,61.0,60.4,30.15,SSE,158,0.0,0.0,98,0.00,CLR,,0.00,WeatherDisplay:10.37,2013-09-05 11:12:00,
2013-09-05 07:17:00,61.0,60.4,30.15,SSE,158,0.0,0.0,98,0.00,CLR,,0.00,WeatherDisplay:10.37,2013-09-05 11:17:00,
2013-09-05 07:22:00,61.0,60.4,30.15,SSE,158,0.0,0.0,98,0.00,CLR,,0.00,WeatherDisplay:10.37,2013-09-05 11:22:00,
2013-09-05 07:27:00,61.2,60.6,30.15,South,180,0.0,0.0,98,0.00,CLR,,0.00,WeatherDisplay:10.37,2013-09-05 11:27:00,
2013-09-05 07:32:00,62.6,62.0,30.15,South,180,0.0,0.0,98,0.00,CLR,,0.00,WeatherDisplay:10.37,2013-09-05 11:32:00,
2013-09-05 07:37:00,63.3,62.7,30.15,South,180,0.0,0.0,98,0.00,CLR,,0.00,WeatherDisplay:10.37,2013-09-05 11:37:00,
2013-09-05 07:42:00,65.7,65.1,30.15,South,180,0.0,0.0,98,0.00,CLR,,0.00,WeatherDisplay:10.37,2013-09-05 11:42:00,
2013-09-05 07:47:00,66.4,65.8,30.15,SE,135,0.0,0.0,98,0.00,CLR,,0.00,WeatherDisplay:10.37,2013-09-05 11:47:00,
2013-09-05 07:52:00,66.7,65.9,30.15,SE,135,0.0,0.0,97,0.00,CLR,,0.00,WeatherDisplay:10.37,2013-09-05 11:52:00,
2013-09-05 07:57:00,67.5,66.3,30.15,SE,135,0.0,0.0,96,0.00,CLR,,0.00,WeatherDisplay:10.37,2013-09-05 11:57:00,
2013-09-05 08:02:00,68.2,67.0,30.15,SE,135,0.0,0.0,96,0.00,CLR,,0.00,WeatherDisplay:10.37,2013-09-05 12:02:00,
2013-09-05 08:07:00,68.4,66.9,30.15,SE,135,0.0,0.0,95,0.00,CLR,,0.00,WeatherDisplay:10.37,2013-09-05 12:07:00,
2013-09-05 08:12:00,68.2,66.7,30.15,SE,135,0.0,0.0,95,0.00,CLR,,0.00,WeatherDisplay:10.37,2013-09-05 12:12:00,
2013-09-05 08:17:00,68.9,67.1,30.15,SE,135,0.0,0.0,94,0.00,CLR,,0.00,WeatherDisplay:10.37,2013-09-05 12:17:00,
2013-09-05 08:22:00,69.8,68.0,30.15,SE,135,0.0,0.0,94,0.00,CLR,,0.00,WeatherDisplay:10.37,2013-09-05 12:22:00,
2013-09-05 08:27:00,70.2,68.7,30.15,SW,225,0.0,0.0,95,0.00,CLR,,0.00,WeatherDisplay:10.37,2013-09-05 12:27:00,
2013-09-05 08:32:00,70.7,68.6,30.15,SW,225,0.0,0.0,93,0.00,CLR,,0.00,WeatherDisplay:10.37,2013-09-05 12:32:00,
2013-09-05 08:37:00,70.9,67.8,30.15,SE,135,0.0,1.2,90,0.00,CLR,,0.00,WeatherDisplay:10.37,2013-09-05 12:37:00,
2013-09-05 08:42:00,71.6,68.5,30.15,ESE,112,0.0,0.0,90,0.00,CLR,,0.00,WeatherDisplay:10.37,2013-09-05 12:42:00,
2013-09-05 08:47:00,72.3,69.2,30.15,North,0,0.0,1.2,90,0.00,CLR,,0.00,WeatherDisplay:10.37,2013-09-05 12:47:00,
2013-09-05 08:52:00,72.9,69.4,30.15,North,0,0.0,0.0,89,0.00,CLR,,0.00,WeatherDisplay:10.37,2013-09-05 12:52:00,
2013-09-05 08:57:00,73.4,68.3,30.15,NE,45,0.0,1.2,84,0.00,CLR,,0.00,WeatherDisplay:10.37,2013-09-05 12:57:00,
2013-09-05 09:02:00,74.7,69.8,30.15,NNW,338,0.0,0.9,85,0.00,CLR,,0.00,WeatherDisplay:10.37,2013-09-05 13:02:00,
2013-09-05 09:07:00,75.0,68.4,30.15,NW,315,0.0,2.0,80,0.00,CLR,,0.00,WeatherDisplay:10.37,2013-09-05 13:07:00,
2013-09-05 09:12:00,75.7,68.8,30.18,NW,315,0.0,1.2,79,0.00,CLR,,0.00,WeatherDisplay:10.37,2013-09-05 13:12:00,
2013-09-05 09:17:00,76.5,69.1,30.18,NNW,338,0.9,1.2,78,0.00,CLR,,0.00,WeatherDisplay:10.37,2013-09-05 13:17:00,
2013-09-05 09:22:00,77.2,67.9,30.18,NW,315,0.9,1.2,73,0.00,CLR,,0.00,WeatherDisplay:10.37,2013-09-05 13:22:00,
2013-09-05 09:27:00,77.9,67.3,30.18,NNE,22,0.0,1.2,70,0.00,CLR,,0.00,WeatherDisplay:10.37,2013-09-05 13:27:00,
2013-09-05 09:32:00,77.5,65.3,30.18,North,0,1.6,2.3,66,0.00,CLR,,0.00,WeatherDisplay:10.37,2013-09-05 13:32:00,
2013-09-05 09:37:00,78.4,64.8,30.18,NNW,338,1.2,1.2,63,0.00,CLR,,0.00,WeatherDisplay:10.37,2013-09-05 13:37:00,
2013-09-05 09:42:00,79.2,66.8,30.18,NNW,338,0.9,1.2,66,0.00,CLR,,0.00,WeatherDisplay:10.37,2013-09-05 13:42:00,
2013-09-05 09:47:00,79.9,66.6,30.18,NNW,338,1.2,2.3,64,0.00,CLR,,0.00,WeatherDisplay:10.37,2013-09-05 13:47:00,
2013-09-05 09:52:00,80.1,65.9,30.18,WNW,292,1.6,2.3,62,0.00,CLR,,0.00,WeatherDisplay:10.37,2013-09-05 13:52:00,
2013-09-05 09:57:00,80.6,64.5,30.18,East,90,0.0,0.9,58,0.00,CLR,,0.00,WeatherDisplay:10.37,2013-09-05 13:57:00,
2013-09-05 10:02:00,80.2,62.1,30.18,NE,45,2.2,3.5,54,0.00,CLR,,0.00,WeatherDisplay:10.37,2013-09-05 14:02:00,
2013-09-05 10:07:00,81.1,63.4,30.18,SSE,158,1.2,1.2,55,0.00,CLR,,0.00,WeatherDisplay:10.37,2013-09-05 14:07:00,
2013-09-05 10:12:00,81.9,62.5,30.18,North,0,0.0,1.2,52,0.00,CLR,,0.00,WeatherDisplay:10.37,2013-09-05 14:12:00,
2013-09-05 10:17:00,82.8,62.8,30.18,NW,315,1.2,1.6,51,0.00,CLR,,0.00,WeatherDisplay:10.37,2013-09-05 14:17:00,
2013-09-05 10:22:00,83.3,62.1,30.18,NW,315,0.9,1.4,49,0.00,CLR,,0.00,WeatherDisplay:10.37,2013-09-05 14:22:00,
2013-09-05 10:27:00,82.9,60.0,30.18,NNE,22,1.6,3.5,46,0.00,CLR,,0.00,WeatherDisplay:10.37,2013-09-05 14:27:00,
2013-09-05 10:32:00,82.9,61.2,30.18,South,180,1.6,2.3,48,0.00,CLR,,0.00,WeatherDisplay:10.37,2013-09-05 14:32:00,
2013-09-05 10:37:00,84.0,61.6,30.18,ENE,68,1.6,2.3,47,0.00,CLR,,0.00,WeatherDisplay:10.37,2013-09-05 14:37:00,
2013-09-05 10:42:00,84.4,61.9,30.18,NNW,338,0.0,1.2,47,0.00,CLR,,0.00,WeatherDisplay:10.37,2013-09-05 14:42:00,
2013-09-05 10:47:00,85.6,62.5,30.18,NNW,338,1.2,2.0,46,0.00,CLR,,0.00,WeatherDisplay:10.37,2013-09-05 14:47:00,
2013-09-05 10:52:00,86.2,61.7,30.18,NNE,22,2.2,3.5,44,0.00,CLR,,0.00,WeatherDisplay:10.37,2013-09-05 14:52:00,
2013-09-05 10:57:00,85.3,59.6,30.18,ENE,68,2.4,3.5,42,0.00,CLR,,0.00,WeatherDisplay:10.37,2013-09-05 14:57:00,
2013-09-05 11:02:00,84.7,59.1,30.18,East,90,3.6,5.9,42,0.00,CLR,,0.00,WeatherDisplay:10.37,2013-09-05 15:02:00,
2013-09-05 11:07:00,84.6,58.9,30.18,East,90,1.6,2.3,42,0.00,CLR,,0.00,WeatherDisplay:10.37,2013-09-05 15:07:00,
2013-09-05 11:12:00,86.5,62.0,30.18,NE,45,0.9,1.2,44,0.00,CLR,,0.00,WeatherDisplay:10.37,2013-09-05 15:12:00,
2013-09-05 11:17:00,86.5,61.4,30.18,NW,315,1.4,2.3,43,0.00,CLR,,0.00,WeatherDisplay:10.37,2013-09-05 15:17:00,
2013-09-05 11:22:00,87.3,60.7,30.18,ESE,112,2.2,2.3,41,0.00,CLR,,0.00,WeatherDisplay:10.37,2013-09-05 15:22:00,
2013-09-05 11:27:00,88.7,61.3,30.18,East,90,1.2,2.3,40,0.00,CLR,,0.00,WeatherDisplay:10.37,2013-09-05 15:27:00,
2013-09-05 11:32:00,87.6,59.6,30.18,North,0,2.0,2.3,39,0.00,CLR,,0.00,WeatherDisplay:10.37,2013-09-05 15:32:00,
2013-09-05 11:37:00,89.2,61.0,30.18,SW,225,1.6,2.3,39,0.00,CLR,,0.00,WeatherDisplay:10.37,2013-09-05 15:37:00,
2013-09-05 11:42:00,89.6,59.9,30.18,West,270,1.4,1.4,37,0.00,CLR,,0.00,WeatherDisplay:10.37,2013-09-05 15:42:00,
2013-09-05 11:47:00,90.5,61.4,30.18,NW,315,0.0,2.0,38,0.00,CLR,,0.00,WeatherDisplay:10.37,2013-09-05 15:47:00,
2013-09-05 11:52:00,90.9,61.0,30.18,ENE,68,1.2,3.1,37,0.00,CLR,,0.00,WeatherDisplay:10.37,2013-09-05 15:52:00,
2013-09-05 11:57:00,89.6,59.9,30.18,ENE,68,1.2,3.3,37,0.00,CLR,,0.00,WeatherDisplay:10.37,2013-09-05 15:57:00,
2013-09-05 12:02:00,89.6,58.3,30.18,WSW,248,2.0,2.3,35,0.00,CLR,,0.00,WeatherDisplay:10.37,2013-09-05 16:02:00,
2013-09-05 12:07:00,90.0,57.8,30.18,ENE,68,2.4,3.5,34,0.00,CLR,,0.00,WeatherDisplay:10.37,2013-09-05 16:07:00,
2013-09-05 12:12:00,89.4,56.5,30.18,ENE,68,2.9,3.5,33,0.00,CLR,,0.00,WeatherDisplay:10.37,2013-09-05 16:12:00,
2013-09-05 12:17:00,89.8,56.8,30.18,NNE,22,1.2,2.3,33,0.00,CLR,,0.00,WeatherDisplay:10.37,2013-09-05 16:17:00,
2013-09-05 12:22:00,89.6,56.7,30.18,ENE,68,3.3,4.3,33,0.00,CLR,,0.00,WeatherDisplay:10.37,2013-09-05 16:22:00,
2013-09-05 12:27:00,89.4,59.0,30.18,NNE,22,2.9,4.6,36,0.00,CLR,,0.00,WeatherDisplay:10.37,2013-09-05 16:27:00,
2013-09-05 12:32:00,90.9,59.4,30.18,ENE,68,1.2,2.4,35,0.00,CLR,,0.00,WeatherDisplay:10.37,2013-09-05 16:32:00,
2013-09-05 12:37:00,90.5,59.1,30.15,NE,45,1.4,3.1,35,0.00,CLR,,0.00,WeatherDisplay:10.37,2013-09-05 16:37:00,
2013-09-05 12:42:00,91.0,59.6,30.15,NW,315,1.6,2.6,35,0.00,CLR,,0.00,WeatherDisplay:10.37,2013-09-05 16:42:00,
2013-09-05 12:47:00,91.8,59.4,30.15,NNW,338,2.0,4.6,34,0.00,CLR,,0.00,WeatherDisplay:10.37,2013-09-05 16:47:00,
2013-09-05 12:52:00,91.6,59.2,30.18,NW,315,1.6,2.3,34,0.00,CLR,,0.00,WeatherDisplay:10.37,2013-09-05 16:52:00,
2013-09-05 12:57:00,91.4,59.1,30.18,NW,315,1.4,2.3,34,0.00,CLR,,0.00,WeatherDisplay:10.37,2013-09-05 16:57:00,
2013-09-05 13:02:00,91.0,60.4,30.18,NE,45,1.6,2.3,36,0.00,CLR,,0.00,WeatherDisplay:10.37,2013-09-05 17:02:00,
2013-09-05 13:07:00,90.7,59.3,30.18,North,0,1.2,1.2,35,0.00,CLR,,0.00,WeatherDisplay:10.37,2013-09-05 17:07:00,
2013-09-05 13:12:00,92.3,59.9,30.18,West,270,0.0,2.0,34,0.00,CLR,,0.00,WeatherDisplay:10.37,2013-09-05 17:12:00,
2013-09-05 13:17:00,92.7,60.2,30.18,NNW,338,1.2,2.3,34,0.00,CLR,,0.00,WeatherDisplay:10.37,2013-09-05 17:17:00,
2013-09-05 13:22:00,92.8,59.5,30.15,NNW,338,1.2,1.6,33,0.00,CLR,,0.00,WeatherDisplay:10.37,2013-09-05 17:22:00,
2013-09-05 13:27:00,92.3,58.2,30.15,NNW,338,1.4,2.3,32,0.00,CLR,,0.00,WeatherDisplay:10.37,2013-09-05 17:27:00,
2013-09-05 13:33:00,91.9,57.9,30.15,NNW,338,2.4,4.6,32,0.00,CLR,,0.00,WeatherDisplay:10.37,2013-09-05 17:33:00,
2013-09-05 13:38:00,92.7,58.5,30.15,NW,315,0.0,2.3,32,0.00,CLR,,0.00,WeatherDisplay:10.37,2013-09-05 17:38:00,
2013-09-05 13:43:00,92.5,58.3,30.15,West,270,3.1,4.6,32,0.00,CLR,,0.00,WeatherDisplay:10.37,2013-09-05 17:43:00,
2013-09-05 13:48:00,92.5,57.4,30.15,NNW,338,2.6,3.5,31,0.00,CLR,,0.00,WeatherDisplay:10.37,2013-09-05 17:48:00,
2013-09-05 13:53:00,92.5,56.5,30.15,ENE,68,2.0,2.6,30,0.00,CLR,,0.00,WeatherDisplay:10.37,2013-09-05 17:53:00,
2013-09-05 13:58:00,92.8,56.8,30.15,ESE,112,0.9,2.0,30,0.00,CLR,,0.00,WeatherDisplay:10.37,2013-09-05 17:58:00,
2013-09-05 14:03:00,93.6,57.5,30.15,NNE,22,0.9,2.3,30,0.00,CLR,,0.00,WeatherDisplay:10.37,2013-09-05 18:03:00,
2013-09-05 14:08:00,92.3,55.4,30.15,North,0,2.4,3.5,29,0.00,CLR,,0.00,WeatherDisplay:10.37,2013-09-05 18:08:00,
2013-09-05 14:13:00,93.2,56.2,30.15,NW,315,0.0,3.5,29,0.00,CLR,,0.00,WeatherDisplay:10.37,2013-09-05 18:13:00,
2013-09-05 14:18:00,93.6,56.5,30.15,ESE,112,1.2,2.3,29,0.00,CLR,,0.00,WeatherDisplay:10.37,2013-09-05 18:18:00,
2013-09-05 14:23:00,94.3,57.1,30.15,NNE,22,1.2,1.2,29,0.00,CLR,,0.00,WeatherDisplay:10.37,2013-09-05 18:23:00,
2013-09-05 14:28:00,94.3,57.1,30.15,East,90,1.6,3.1,29,0.00,CLR,,0.00,WeatherDisplay:10.37,2013-09-05 18:28:00,
2013-09-05 14:33:00,93.7,54.7,30.15,East,90,2.2,2.2,27,0.00,CLR,,0.00,WeatherDisplay:10.37,2013-09-05 18:33:00,
2013-09-05 14:38:00,92.8,54.9,30.12,ENE,68,3.1,4.6,28,0.00,CLR,,0.00,WeatherDisplay:10.37,2013-09-05 18:38:00,
2013-09-05 14:43:00,93.7,55.7,30.12,NNW,338,0.9,2.3,28,0.00,CLR,,0.00,WeatherDisplay:10.37,2013-09-05 18:43:00,
2013-09-05 14:48:00,94.6,56.5,30.12,NNW,338,0.9,1.6,28,0.00,CLR,,0.00,WeatherDisplay:10.37,2013-09-05 18:48:00,
2013-09-05 14:53:00,94.3,55.2,30.15,West,270,2.4,2.6,27,0.00,CLR,,0.00,WeatherDisplay:10.37,2013-09-05 18:53:00,
2013-09-05 14:58:00,94.5,55.3,30.15,NW,315,1.6,2.3,27,0.00,CLR,,0.00,WeatherDisplay:10.37,2013-09-05 18:58:00,
2013-09-05 15:03:00,95.0,55.8,30.15,NNW,338,0.9,1.2,27,0.00,CLR,,0.00,WeatherDisplay:10.37,2013-09-05 19:03:00,
2013-09-05 15:08:00,95.2,55.9,30.15,NNW,338,1.2,2.3,27,0.00,CLR,,0.00,WeatherDisplay:10.37,2013-09-05 19:08:00,
2013-09-05 15:13:00,95.0,54.7,30.15,NE,45,1.4,2.2,26,0.00,CLR,,0.00,WeatherDisplay:10.37,2013-09-05 19:13:00,
2013-09-05 15:18:00,95.4,56.1,30.15,South,180,0.0,1.4,27,0.00,CLR,,0.00,WeatherDisplay:10.37,2013-09-05 19:18:00,
2013-09-05 15:23:00,95.0,55.8,30.15,East,90,2.4,2.9,27,0.00,CLR,,0.00,WeatherDisplay:10.37,2013-09-05 19:23:00,
2013-09-05 15:28:00,94.3,55.2,30.15,South,180,2.2,3.5,27,0.00,CLR,,0.00,WeatherDisplay:10.37,2013-09-05 19:28:00,
2013-09-05 15:33:00,95.2,55.9,30.15,NE,45,0.0,2.3,27,0.00,CLR,,0.00,WeatherDisplay:10.37,2013-09-05 19:33:00,
2013-09-05 15:38:00,95.5,56.2,30.15,ENE,68,1.2,2.6,27,0.00,CLR,,0.00,WeatherDisplay:10.37,2013-09-05 19:38:00,
2013-09-05 15:43:00,95.4,56.1,30.15,ENE,68,2.0,2.3,27,0.00,CLR,,0.00,WeatherDisplay:10.37,2013-09-05 19:43:00,
2013-09-05 15:48:00,95.4,57.1,30.15,NNW,338,1.2,1.4,28,0.00,CLR,,0.00,WeatherDisplay:10.37,2013-09-05 19:48:00,
2013-09-05 15:53:00,95.2,55.9,30.15,NNE,22,0.0,0.0,27,0.00,CLR,,0.00,WeatherDisplay:10.37,2013-09-05 19:53:00,
2013-09-05 15:58:00,95.9,56.5,30.15,West,270,1.2,2.3,27,0.00,CLR,,0.00,WeatherDisplay:10.37,2013-09-05 19:58:00,
2013-09-05 16:03:00,95.7,57.4,30.15,West,270,2.0,3.5,28,0.00,CLR,,0.00,WeatherDisplay:10.37,2013-09-05 20:03:00,
2013-09-05 16:08:00,95.4,57.1,30.15,NW,315,1.4,2.3,28,0.00,CLR,,0.00,WeatherDisplay:10.37,2013-09-05 20:08:00,
2013-09-05 16:13:00,95.2,56.9,30.15,East,90,0.0,1.2,28,0.00,CLR,,0.00,WeatherDisplay:10.37,2013-09-05 20:13:00,
2013-09-05 16:18:00,95.5,57.2,30.15,NNE,22,0.0,0.0,28,0.00,CLR,,0.00,WeatherDisplay:10.37,2013-09-05 20:18:00,
2013-09-05 16:23:00,95.5,57.2,30.12,West,270,2.9,3.5,28,0.00,CLR,,0.00,WeatherDisplay:10.37,2013-09-05 20:23:00,
2013-09-05 16:28:00,94.6,56.5,30.12,NE,45,1.4,2.3,28,0.00,CLR,,0.00,WeatherDisplay:10.37,2013-09-05 20:28:00,
2013-09-05 16:33:00,93.7,56.7,30.12,NNW,338,0.0,0.0,29,0.00,CLR,,0.00,WeatherDisplay:10.37,2013-09-05 20:33:00,
2013-09-05 16:38:00,94.1,57.0,30.12,North,0,0.0,0.0,29,0.00,CLR,,0.00,WeatherDisplay:10.37,2013-09-05 20:38:00,
2013-09-05 16:43:00,94.3,56.2,30.12,NNW,338,0.0,0.0,28,0.00,CLR,,0.00,WeatherDisplay:10.37,2013-09-05 20:43:00,
2013-09-05 16:48:00,94.5,57.3,30.12,NW,315,0.9,1.2,29,0.00,CLR,,0.00,WeatherDisplay:10.37,2013-09-05 20:48:00,
2013-09-05 16:53:00,93.9,55.9,30.09,NW,315,0.9,1.2,28,0.00,CLR,,0.00,WeatherDisplay:10.37,2013-09-05 20:53:00,
2013-09-05 16:58:00,93.2,56.2,30.09,West,270,0.0,0.0,29,0.00,CLR,,0.00,WeatherDisplay:10.37,2013-09-05 20:58:00,
2013-09-05 17:03:00,93.7,55.7,30.09,NNE,22,0.0,1.2,28,0.00,CLR,,0.00,WeatherDisplay:10.37,2013-09-05 21:03:00,
2013-09-05 17:08:00,93.0,57.0,30.12,NNE,22,0.9,2.3,30,0.00,CLR,,0.00,WeatherDisplay:10.37,2013-09-05 21:08:00,
2013-09-05 17:13:00,93.2,56.2,30.12,West,270,0.0,1.2,29,0.00,CLR,,0.00,WeatherDisplay:10.37,2013-09-05 21:13:00,
2013-09-05 17:18:00,92.8,56.8,30.12,NW,315,0.9,1.2,30,0.00,CLR,,0.00,WeatherDisplay:10.37,2013-09-05 21:18:00,
2013-09-05 17:23:00,92.8,55.9,30.12,NW,315,1.2,1.4,29,0.00,CLR,,0.00,WeatherDisplay:10.37,2013-09-05 21:23:00,
2013-09-05 17:28:00,93.0,57.0,30.12,NNW,338,1.2,1.4,30,0.00,CLR,,0.00,WeatherDisplay:10.37,2013-09-05 21:28:00,
2013-09-05 17:33:00,92.8,56.8,30.12,NNW,338,0.0,0.0,30,0.00,CLR,,0.00,WeatherDisplay:10.37,2013-09-05 21:33:00,
2013-09-05 17:38:00,92.5,56.5,30.12,NNW,338,0.0,0.0,30,0.00,CLR,,0.00,WeatherDisplay:10.37,2013-09-05 21:38:00,
2013-09-05 17:43:00,91.6,55.8,30.12,NNW,338,0.9,1.2,30,0.00,CLR,,0.00,WeatherDisplay:10.37,2013-09-05 21:43:00,
2013-09-05 17:48:00,91.6,55.8,30.12,NW,315,0.0,0.0,30,0.00,CLR,,0.00,WeatherDisplay:10.37,2013-09-05 21:48:00,
2013-09-05 17:53:00,91.8,56.8,30.09,WNW,292,0.0,0.0,31,0.00,CLR,,0.00,WeatherDisplay:10.37,2013-09-05 21:53:00,
2013-09-05 17:58:00,91.6,56.7,30.09,WNW,292,0.0,1.2,31,0.00,CLR,,0.00,WeatherDisplay:10.37,2013-09-05 21:58:00,
2013-09-05 18:03:00,91.4,57.4,30.09,West,270,0.0,0.0,32,0.00,CLR,,0.00,WeatherDisplay:10.37,2013-09-05 22:03:00,
2013-09-05 18:08:00,90.9,57.8,30.12,South,180,0.0,1.2,33,0.00,CLR,,0.00,WeatherDisplay:10.37,2013-09-05 22:08:00,
2013-09-05 18:13:00,90.3,57.3,30.12,West,270,0.0,0.0,33,0.00,CLR,,0.00,WeatherDisplay:10.37,2013-09-05 22:13:00,
2013-09-05 18:18:00,89.1,57.8,30.12,NW,315,0.0,0.0,35,0.00,CLR,,0.00,WeatherDisplay:10.37,2013-09-05 22:18:00,
2013-09-05 18:23:00,87.6,57.4,30.12,NW,315,0.0,0.0,36,0.00,CLR,,0.00,WeatherDisplay:10.37,2013-09-05 22:23:00,
2013-09-05 18:28:00,85.6,55.6,30.12,NW,315,0.0,0.0,36,0.00,CLR,,0.00,WeatherDisplay:10.37,2013-09-05 22:28:00,
2013-09-05 18:33:00,84.0,56.4,30.12,NW,315,0.0,0.0,39,0.00,CLR,,0.00,WeatherDisplay:10.37,2013-09-05 22:33:00,
2013-09-05 18:38:00,82.9,56.1,30.12,NW,315,0.0,0.0,40,0.00,CLR,,0.00,WeatherDisplay:10.37,2013-09-05 22:38:00,
2013-09-05 18:43:00,82.8,56.7,30.12,NW,315,0.0,0.0,41,0.00,CLR,,0.00,WeatherDisplay:10.37,2013-09-05 22:43:00,
2013-09-05 18:48:00,82.6,57.2,30.12,NW,315,0.0,0.0,42,0.00,CLR,,0.00,WeatherDisplay:10.37,2013-09-05 22:48:00,
2013-09-05 18:53:00,81.5,57.5,30.09,NW,315,0.0,0.0,44,0.00,CLR,,0.00,WeatherDisplay:10.37,2013-09-05 22:53:00,
2013-09-05 18:58:00,79.9,58.4,30.09,NW,315,0.0,0.0,48,0.00,CLR,,0.00,WeatherDisplay:10.37,2013-09-05 22:58:00,
2013-09-05 19:03:00,78.6,58.4,30.09,NW,315,0.0,0.0,50,0.00,CLR,,0.00,WeatherDisplay:10.37,2013-09-05 23:03:00,
2013-09-05 19:08:00,77.7,59.2,30.09,SW,225,0.0,0.0,53,0.00,CLR,,0.00,WeatherDisplay:10.37,2013-09-05 23:08:00,
2013-09-05 19:13:00,76.5,60.6,30.09,SW,225,0.0,0.0,58,0.00,CLR,,0.00,WeatherDisplay:10.37,2013-09-05 23:13:00,
2013-09-05 19:18:00,75.6,60.7,30.09,SW,225,0.0,0.0,60,0.00,CLR,,0.00,WeatherDisplay:10.37,2013-09-05 23:18:00,
2013-09-05 19:23:00,74.8,60.9,30.12,SW,225,0.0,0.0,62,0.00,CLR,,0.00,WeatherDisplay:10.37,2013-09-05 23:23:00,
2013-09-05 19:28:00,74.1,61.2,30.12,SW,225,0.0,0.0,64,0.00,CLR,,0.00,WeatherDisplay:10.37,2013-09-05 23:28:00,
2013-09-05 19:33:00,73.4,61.8,30.12,SW,225,0.0,0.0,67,0.00,CLR,,0.00,WeatherDisplay:10.37,2013-09-05 23:33:00,
2013-09-05 19:38:00,72.7,61.5,30.12,SW,225,0.0,0.0,68,0.00,CLR,,0.00,WeatherDisplay:10.37,2013-09-05 23:38:00,
2013-09-05 19:43:00,72.1,61.4,30.12,SW,225,0.0,0.0,69,0.00,CLR,,0.00,WeatherDisplay:10.37,2013-09-05 23:43:00,
2013-09-05 19:48:00,71.6,61.3,30.12,SW,225,0.0,0.0,70,0.00,CLR,,0.00,WeatherDisplay:10.37,2013-09-05 23:48:00,
2013-09-05 19:53:00,71.2,61.0,30.09,SW,225,0.0,0.0,70,0.00,CLR,,0.00,WeatherDisplay:10.37,2013-09-05 23:53:00,
2013-09-05 19:58:00,70.7,60.8,30.09,SW,225,0.0,0.0,71,0.00,CLR,,0.00,WeatherDisplay:10.37,2013-09-05 23:58:00,
2013-09-05 20:03:00,70.3,61.3,30.09,SW,225,0.0,0.0,73,0.00,CLR,,0.00,WeatherDisplay:10.37,2013-09-06 00:03:00,
2013-09-05 20:08:00,70.0,61.7,30.09,SW,225,0.0,0.0,75,0.00,CLR,,0.00,WeatherDisplay:10.37,2013-09-06 00:08:00,
2013-09-05 20:13:00,69.6,61.7,30.09,SW,225,0.0,0.0,76,0.00,CLR,,0.00,WeatherDisplay:10.37,2013-09-06 00:13:00,
2013-09-05 20:18:00,69.3,62.5,30.09,SW,225,0.0,0.0,79,0.00,CLR,,0.00,WeatherDisplay:10.37,2013-09-06 00:18:00,
2013-09-05 20:23:00,68.9,62.8,30.09,SW,225,0.0,0.0,81,0.00,CLR,,0.00,WeatherDisplay:10.37,2013-09-06 00:23:00,
2013-09-05 20:28:00,68.7,61.9,30.09,SW,225,0.0,0.0,79,0.00,CLR,,0.00,WeatherDisplay:10.37,2013-09-06 00:28:00,
2013-09-05 20:33:00,68.5,62.8,30.09,SW,225,0.0,0.0,82,0.00,CLR,,0.00,WeatherDisplay:10.37,2013-09-06 00:33:00,
2013-09-05 20:38:00,68.4,63.0,30.12,SW,225,0.0,0.0,83,0.00,CLR,,0.00,WeatherDisplay:10.37,2013-09-06 00:38:00,
2013-09-05 20:43:00,68.2,62.5,30.12,West,270,0.0,0.0,82,0.00,CLR,,0.00,WeatherDisplay:10.37,2013-09-06 00:43:00,
2013-09-05 20:48:00,68.0,63.7,30.12,West,270,0.0,0.0,86,0.00,CLR,,0.00,WeatherDisplay:10.37,2013-09-06 00:48:00,
2013-09-05 20:53:00,67.8,63.8,30.15,West,270,0.0,0.0,87,0.00,CLR,,0.00,WeatherDisplay:10.37,2013-09-06 00:53:00,
2013-09-05 20:58:00,67.5,63.5,30.15,NNE,22,0.0,0.0,87,0.00,CLR,,0.00,WeatherDisplay:10.37,2013-09-06 00:58:00,
2013-09-05 21:03:00,67.3,63.6,30.15,NNW,338,0.0,0.0,88,0.00,CLR,,0.00,WeatherDisplay:10.37,2013-09-06 01:03:00,
2013-09-05 21:08:00,67.1,63.4,30.12,NNW,338,0.0,0.0,88,0.00,CLR,,0.00,WeatherDisplay:10.37,2013-09-06 01:08:00,
2013-09-05 21:13:00,66.9,63.2,30.12,NNW,338,0.0,0.0,88,0.00,CLR,,0.00,WeatherDisplay:10.37,2013-09-06 01:13:00,
2013-09-05 21:18:00,66.9,63.2,30.12,NW,315,0.0,0.0,88,0.00,CLR,,0.00,WeatherDisplay:10.37,2013-09-06 01:18:00,
2013-09-05 21:23:00,66.9,63.6,30.15,NW,315,0.0,0.0,89,0.00,CLR,,0.00,WeatherDisplay:10.37,2013-09-06 01:23:00,
2013-09-05 21:28:00,66.7,63.4,30.15,West,270,0.0,0.0,89,0.00,CLR,,0.00,WeatherDisplay:10.37,2013-09-06 01:28:00,
2013-09-05 21:33:00,66.7,63.4,30.15,West,270,0.0,0.0,89,0.00,CLR,,0.00,WeatherDisplay:10.37,2013-09-06 01:33:00,
2013-09-05 21:38:00,66.6,63.5,30.18,WNW,292,0.0,0.0,90,0.00,CLR,,0.00,WeatherDisplay:10.37,2013-09-06 01:38:00,
2013-09-05 21:43:00,66.4,63.4,30.18,WNW,292,0.0,0.0,90,0.00,CLR,,0.00,WeatherDisplay:10.37,2013-09-06 01:43:00,
2013-09-05 21:48:00,66.2,62.9,30.18,WNW,292,0.0,0.0,89,0.00,CLR,,0.00,WeatherDisplay:10.37,2013-09-06 01:48:00,
2013-09-05 21:53:00,66.0,63.0,30.12,West,270,0.0,1.2,90,0.00,CLR,,0.00,WeatherDisplay:10.37,2013-09-06 01:53:00,
2013-09-05 21:58:00,66.0,63.0,30.12,West,270,0.0,0.0,90,0.00,CLR,,0.00,WeatherDisplay:10.37,2013-09-06 01:58:00,
2013-09-05 22:03:00,66.0,63.0,30.12,West,270,0.0,0.0,90,0.00,CLR,,0.00,WeatherDisplay:10.37,2013-09-06 02:03:00,
2013-09-05 22:08:00,66.0,63.3,30.15,West,270,0.0,0.0,91,0.00,CLR,,0.00,WeatherDisplay:10.37,2013-09-06 02:08:00,
2013-09-05 22:13:00,65.8,63.5,30.15,WNW,292,0.0,0.0,92,0.00,CLR,,0.00,WeatherDisplay:10.37,2013-09-06 02:13:00,
2013-09-05 22:18:00,65.8,63.1,30.15,WNW,292,0.0,0.0,91,0.00,CLR,,0.00,WeatherDisplay:10.37,2013-09-06 02:18:00,
2013-09-05 22:23:00,65.8,63.5,30.15,WNW,292,0.0,0.0,92,0.00,CLR,,0.00,WeatherDisplay:10.37,2013-09-06 02:23:00,
2013-09-05 22:28:00,65.8,63.5,30.15,WNW,292,0.0,0.0,92,0.00,CLR,,0.00,WeatherDisplay:10.37,2013-09-06 02:28:00,
2013-09-05 22:33:00,65.8,63.8,30.15,WNW,292,0.0,0.0,93,0.00,CLR,,0.00,WeatherDisplay:10.37,2013-09-06 02:33:00,
2013-09-05 22:38:00,65.7,63.3,30.15,West,270,0.0,0.0,92,0.00,CLR,,0.00,WeatherDisplay:10.37,2013-09-06 02:38:00,
2013-09-05 22:43:00,65.7,63.3,30.15,West,270,0.0,0.0,92,0.00,CLR,,0.00,WeatherDisplay:10.37,2013-09-06 02:43:00,
2013-09-05 22:48:00,65.7,63.6,30.15,West,270,0.0,0.0,93,0.00,CLR,,0.00,WeatherDisplay:10.37,2013-09-06 02:48:00,
2013-09-05 22:53:00,65.5,63.4,30.15,North,0,0.0,0.0,93,0.00,CLR,,0.00,WeatherDisplay:10.37,2013-09-06 02:53:00,
2013-09-05 22:58:00,65.3,63.2,30.15,North,0,0.0,0.0,93,0.00,CLR,,0.00,WeatherDisplay:10.37,2013-09-06 02:58:00,
2013-09-05 23:03:00,65.1,63.3,30.15,North,0,0.0,0.0,94,0.00,CLR,,0.00,WeatherDisplay:10.37,2013-09-06 03:03:00,
2013-09-05 23:08:00,64.9,63.2,30.15,North,0,0.0,0.0,94,0.00,CLR,,0.00,WeatherDisplay:10.37,2013-09-06 03:08:00,
2013-09-05 23:13:00,64.8,63.0,30.15,North,0,0.0,0.0,94,0.00,CLR,,0.00,WeatherDisplay:10.37,2013-09-06 03:13:00,
2013-09-05 23:18:00,64.8,63.0,30.15,North,0,0.0,0.0,94,0.00,CLR,,0.00,WeatherDisplay:10.37,2013-09-06 03:18:00,
2013-09-05 23:23:00,64.6,62.8,30.18,North,0,0.0,0.0,94,0.00,CLR,,0.00,WeatherDisplay:10.37,2013-09-06 03:23:00,
2013-09-05 23:28:00,64.6,62.8,30.18,North,0,0.0,0.0,94,0.00,CLR,,0.00,WeatherDisplay:10.37,2013-09-06 03:28:00,
2013-09-05 23:33:00,64.4,62.6,30.18,North,0,0.0,0.0,94,0.00,CLR,,0.00,WeatherDisplay:10.37,2013-09-06 03:33:00,
2013-09-05 23:38:00,64.4,62.9,30.15,North,0,0.0,0.0,95,0.00,CLR,,0.00,WeatherDisplay:10.37,2013-09-06 03:38:00,
2013-09-05 23:43:00,64.2,62.8,30.15,North,0,0.0,0.0,95,0.00,CLR,,0.00,WeatherDisplay:10.37,2013-09-06 03:43:00,
2013-09-05 23:48:00,64.2,62.8,30.15,North,0,0.0,0.0,95,0.00,CLR,,0.00,WeatherDisplay:10.37,2013-09-06 03:48:00,
2013-09-05 23:53:00,64.2,63.1,30.18,North,0,0.0,0.0,96,0.00,CLR,,0.00,WeatherDisplay:10.37,2013-09-06 03:53:00,
2013-09-05 23:58:00,64.2,63.1,30.18,North,0,0.0,0.0,96,0.00,CLR,,0.00,WeatherDisplay:10.37,2013-09-06 03:58:00,